Alexandria, LA

4:13 AM CDT on September 29, 2016 (GMT -0500)
Alexandria International

Weather History for KAEX - December, 2009

Change the Weather History Date:

Monday, December 21, 2009

  Actual Average Record
Temperature  
Mean Temperature 51 °F 50 °F  
Max Temperature 66 °F 60 °F 79 °F (1948)
Min Temperature 35 °F 40 °F 18 °F (1901)
Degree Days  
Heating Degree Days 14 16  
Month to date heating degree days 363 305  
Since 1 July heating degree days 660 630  
Moisture  
Dew Point 37 °F    
Average Humidity 67    
Maximum Humidity 100    
Minimum Humidity 34    
Precipitation  
Precipitation 0.00 in 0.16 in 2.99 in (1972)
Month to date precipitation 6.60 4.61  
Year to date precipitation 54.26 54.41  
Snow  
Snow 0.00 in - T in (1963)
Month to date snowfall 0.2  
Since 1 July snowfall 0.2  
Snow Depth 0.00 in    
Sea Level Pressure  
Sea Level Pressure 30.23 in    
Wind  
Wind Speed 4 mph (South)    
Max Wind Speed 13 mph    
Max Gust Speed 15 mph    
Visibility 7 miles    
Events      
T = Trace of Precipitation, MM = Missing Value Source: NWS Daily Summary

Daily Weather History Graph

Daily Weather History Graph

Search for Another Location

Airport or City:

Trip Planner

Search our weather history database for the weather conditions in past years. The results will help you decide how hot, cold, wet, or windy it might be!

Date:

Astronomy

Dec. 21, 2009 Rise Set
Actual Time 7:05 AM CST 5:11 PM CST
Civil Twilight 6:38 AM CST 5:38 PM CST
Nautical Twilight 6:08 AM CST 6:08 PM CST
Astronomical Twilight 5:38 AM CST 6:38 PM CST
Moon 10:23 AM CST (12/21) 9:59 PM CST (12/21)
Length of Visible Light 11h 00m
Length of Day
10h 06m
Waxing Crescent, 23% of the Moon is Illuminated
Dec 21
Waxing Crescent
Dec 24
First Quarter
Dec 31
Full
Jan 7
Last Quarter
Jan 15
New

Hourly Weather History & Observations

Time (CST) Temp. Windchill Dew Point Humidity Pressure Visibility Wind Dir Wind Speed Gust Speed Precip Events Conditions
12:53 AM 39.9 °F 35.8 °F 37.0 °F 89% 30.27 in 8.0 mi SW 5.8 mph - N/A   Clear
1:53 AM 39.9 °F - 37.0 °F 89% 30.27 in 7.0 mi Calm Calm - N/A   Clear
2:53 AM 41.0 °F - 37.0 °F 86% 30.26 in 8.0 mi Calm Calm - N/A   Clear
3:53 AM 39.0 °F - 36.0 °F 89% 30.25 in 6.0 mi Calm Calm - N/A   Clear
4:53 AM 36.0 °F - 34.0 °F 93% 30.26 in 5.0 mi Calm Calm - N/A   Clear
5:53 AM 36.0 °F - 35.1 °F 97% 30.27 in 4.0 mi Calm Calm - N/A   Clear
6:53 AM 36.0 °F - 35.1 °F 97% 30.28 in 5.0 mi Calm Calm - N/A   Clear
7:50 AM 35.6 °F 32.8 °F 35.6 °F 100% 30.27 in 1.8 mi ESE 3.5 mph - N/A   Clear
7:53 AM 35.1 °F 32.2 °F 35.1 °F 100% 30.29 in 1.8 mi ESE 3.5 mph - N/A   Clear
8:00 AM 35.6 °F 31.7 °F 35.6 °F 100% 30.27 in 2.5 mi ESE 4.6 mph - N/A   Clear
8:16 AM 39.2 °F - 37.4 °F 93% 30.27 in 3.0 mi Calm Calm - N/A   Clear
8:53 AM 44.1 °F - 41.0 °F 89% 30.29 in 3.0 mi Calm Calm - N/A   Clear
9:53 AM 51.1 °F - 43.0 °F 74% 30.29 in 8.0 mi Calm Calm - N/A   Clear
11:53 AM 61.0 °F - 37.9 °F 42% 30.25 in 9.0 mi West 5.8 mph - N/A   Clear
12:53 PM 63.0 °F - 36.0 °F 37% 30.22 in 10.0 mi SW 5.8 mph - N/A   Clear
1:53 PM 64.9 °F - 35.1 °F 33% 30.20 in 10.0 mi SW 9.2 mph - N/A   Clear
2:53 PM 64.9 °F - 37.0 °F 36% 30.18 in 10.0 mi South 8.1 mph - N/A   Clear
3:53 PM 64.0 °F - 37.0 °F 37% 30.18 in 10.0 mi SSW 8.1 mph - N/A   Clear
4:53 PM 59.0 °F - 39.0 °F 48% 30.17 in 10.0 mi South 6.9 mph - N/A   Clear
5:53 PM 57.9 °F - 32.0 °F 37% 30.16 in 10.0 mi South 5.8 mph - N/A   Clear
6:53 PM 51.1 °F - 35.1 °F 54% 30.16 in 10.0 mi SSE 3.5 mph - N/A   Clear
7:53 PM 48.9 °F - 36.0 °F 61% 30.17 in 10.0 mi SSE 4.6 mph - N/A   Clear
8:53 PM 45.0 °F - 36.0 °F 71% 30.17 in 10.0 mi Calm Calm - N/A   Clear
9:53 PM 45.0 °F 42.6 °F 37.0 °F 74% 30.17 in 10.0 mi SSE 4.6 mph - N/A   Clear
10:53 PM 44.1 °F 41.5 °F 37.0 °F 76% 30.17 in 10.0 mi SSE 4.6 mph - N/A   Clear
11:53 PM 42.1 °F 40.2 °F 36.0 °F 79% 30.15 in 10.0 mi ESE 3.5 mph - N/A   Clear